Theta_e
293 287 286 285 287 288 288 289 289 288 288 286 285 283 283 283 286 288 289 291 289 289 288 289 288 287 290 291 293 293 291 290 290 292 294 295 295 295 295 295 296 296 298 300 299 300 301 302 304 308 309 311 311 314 316 317 318 319 319 317 317 317 317 316 316 315 315 315 312 312 314 315 312 313 314 317 317 319 320 320 322 325 327 328 328 327
290 286 287 288 289 288 290 288 287 287 286 287 284 283 285 284 287 288 290 290 289 289 283 283 285 287 288 290 291 292 289 289 290 292 292 294 295 295 295 296 296 297 296 297 297 297 298 300 301 303 307 307 309 311 315 316 317 318 317 316 317 314 314 316 317 316 315 317 317 318 317 312 310 309 311 315 315 317 316 316 317 319 320 324 326 325
286 285 288 289 291 289 287 288 287 288 286 285 286 283 283 286 286 289 288 288 289 288 286 282 286 289 290 291 292 291 292 294 293 292 294 294 294 294 295 295 296 295 297 295 296 296 297 298 299 302 305 307 311 311 313 316 316 315 315 315 315 313 314 314 314 314 315 311 310 312 306 310 305 305 306 307 305 307 312 313 315 316 318 318 320 323
286 285 290 290 289 288 287 287 287 286 285 284 283 285 283 281 286 284 285 286 290 288 286 285 287 290 291 290 292 294 293 293 292 292 292 292 293 294 295 296 296 296 297 296 297 298 296 296 298 299 302 306 308 308 309 312 314 315 314 313 313 312 312 312 311 311 308 308 302 301 303 304 304 305 301 302 302 305 308 312 313 313 314 314 315 318
286 291 290 289 289 289 288 287 287 287 287 284 281 281 282 287 288 285 288 288 284 287 287 285 285 287 283 283 284 286 286 290 292 291 291 292 293 294 294 293 294 296 296 296 296 295 295 298 299 301 304 304 306 307 309 311 313 315 313 312 312 311 310 309 308 308 305 305 302 301 302 301 301 301 302 303 303 304 307 310 311 313 312 312 312 312
288 288 289 290 288 287 288 287 285 284 284 282 284 285 286 284 287 289 285 286 279 280 282 286 279 276 280 282 284 287 286 290 288 289 291 291 292 291 292 294 293 293 293 295 296 296 296 299 298 298 300 303 305 307 308 310 312 312 311 309 308 308 308 308 307 307 307 307 306 303 304 303 300 303 300 305 308 305 307 310 310 310 310 312 313 311
288 291 291 291 289 287 286 285 287 286 282 284 285 286 285 286 286 285 287 284 280 279 286 284 279 278 280 286 288 289 290 290 290 288 290 292 293 290 292 293 292 294 295 294 294 294 296 297 298 299 300 302 303 306 304 305 307 307 307 308 308 308 308 307 306 306 307 306 306 306 307 306 306 306 303 299 300 304 303 305 306 309 308 309 311 311
290 290 288 288 288 286 285 287 288 285 283 282 283 286 286 287 286 285 283 285 279 279 282 283 279 277 281 286 285 285 285 286 287 290 291 291 290 289 289 291 292 295 295 294 295 295 296 298 300 301 301 301 303 302 301 303 304 306 306 306 307 307 306 306 306 306 307 307 305 304 304 304 304 304 305 301 302 301 302 302 302 304 306 307 308 310
290 288 288 287 284 283 285 283 288 285 283 284 287 287 286 287 285 283 282 281 281 281 280 277 283 281 277 283 285 285 285 283 286 289 290 290 289 289 289 290 292 294 293 294 296 296 297 298 299 299 299 300 299 301 303 304 305 305 305 305 305 305 304 304 304 305 305 306 306 305 304 303 303 303 302 299 299 300 300 300 299 303 304 305 306 307
290 289 289 289 286 284 284 287 287 288 289 290 287 287 286 285 283 281 279 284 277 277 276 279 281 276 278 279 282 280 285 285 287 288 289 289 289 289 290 289 289 292 293 293 295 295 294 295 295 296 298 298 299 299 300 300 301 302 303 304 304 304 303 303 304 305 305 305 304 304 303 303 302 299 297 297 298 298 299 300 300 302 303 303 303 304
291 293 293 289 288 286 287 288 287 288 290 289 287 287 284 282 280 278 278 277 276 274 276 280 282 281 277 279 282 284 285 284 286 286 286 288 291 292 292 292 293 294 295 294 294 294 293 293 294 295 298 298 297 297 298 299 300 301 303 303 303 303 303 303 304 304 304 304 303 304 303 303 302 300 299 297 297 297 297 301 302 302 302 302 302 302
289 289 291 289 292 289 288 289 288 288 287 288 283 280 279 280 279 277 272 275 273 270 274 277 281 281 275 276 281 284 285 285 288 288 291 291 292 293 292 293 293 292 292 293 294 295 294 296 295 295 297 296 296 297 297 298 299 300 301 302 302 301 301 302 303 303 303 303 303 303 303 303 303 301 300 299 299 298 298 300 301 300 300 300 301 300
287 287 287 291 292 291 287 288 288 286 285 286 283 283 277 273 271 272 270 274 271 273 280 278 281 281 281 283 287 287 286 287 286 289 292 293 292 293 293 293 292 291 291 293 292 292 293 294 295 295 295 295 295 298 298 299 299 298 298 300 301 301 300 301 301 302 302 302 302 303 302 302 302 301 301 301 300 298 299 299 299 298 299 299 298 299
282 281 287 290 291 292 291 287 286 285 286 283 285 280 275 271 270 267 264 265 268 274 277 280 282 280 280 283 288 292 293 289 285 287 288 290 293 293 293 293 293 292 291 292 291 290 290 291 291 293 295 296 296 296 297 297 297 297 299 299 301 301 300 300 300 301 301 301 302 302 302 302 301 301 301 301 301 299 299 299 300 299 299 299 299 299
276 278 285 287 286 290 290 290 290 287 286 286 282 284 280 271 268 267 265 271 274 275 276 278 277 276 278 283 286 288 290 287 286 288 288 288 290 291 291 291 291 292 291 290 291 292 293 293 292 294 295 295 295 296 296 296 296 296 299 299 300 300 299 299 300 300 300 301 300 300 301 301 301 302 301 302 302 300 299 299 300 299 298 299 300 300
282 279 281 290 289 291 291 290 289 287 286 284 281 281 277 278 276 274 271 269 268 271 273 274 278 278 282 285 286 287 287 290 289 288 286 289 289 288 291 293 294 294 293 291 291 293 293 294 293 294 294 293 293 294 295 297 297 298 300 299 300 301 300 299 299 299 300 300 300 299 299 300 300 300 301 300 300 300 300 300 300 300 300 300 301 300
280 279 285 289 289 291 291 289 289 289 281 283 284 281 281 281 281 273 272 275 272 270 275 271 278 282 281 284 289 291 288 289 287 288 288 289 287 287 291 291 290 293 291 291 293 294 295 294 294 295 293 292 293 294 297 299 299 300 300 299 299 300 298 298 299 299 299 299 298 298 298 299 299 299 300 300 299 299 299 300 301 302 301 301 301 300
281 277 284 286 286 289 288 288 287 287 285 284 281 282 286 284 282 278 273 267 267 271 273 273 277 280 277 279 281 284 286 287 285 284 287 287 287 287 290 290 290 292 291 292 293 294 295 295 296 295 293 293 295 296 296 298 299 300 301 300 300 299 299 298 298 298 298 297 297 297 297 298 299 300 299 299 299 298 298 299 301 302 301 299 299 299
284 280 281 285 285 287 287 291 289 288 288 284 281 285 286 279 278 278 272 270 268 265 268 272 274 277 280 282 284 283 284 286 287 285 285 289 289 290 290 291 289 287 288 290 292 293 295 296 296 295 294 294 294 294 296 298 299 299 298 299 300 300 300 299 298 297 297 297 298 298 298 298 298 299 299 299 298 297 298 298 300 301 301 299 298 297
286 280 279 285 286 287 286 287 283 285 289 289 288 287 283 281 276 275 278 272 274 270 266 272 274 280 282 281 284 285 283 283 285 285 286 288 288 290 290 291 290 289 290 291 292 292 294 294 294 294 294 294 294 294 295 296 297 298 299 298 298 298 297 296 296 296 296 296 297 297 296 296 297 297 298 298 298 298 297 297 299 300 299 299 297 297
283 281 276 281 283 285 284 285 283 287 285 285 286 283 286 283 283 279 279 275 275 264 265 268 272 277 281 284 285 287 288 288 289 290 289 289 289 289 288 289 289 290 291 292 292 292 291 292 291 291 291 292 291 291 292 295 297 298 298 298 298 298 297 296 296 296 296 296 296 295 295 295 295 295 296 296 297 298 297 297 298 299 299 298 296 295
281 281 276 281 283 281 283 285 287 290 291 289 288 285 287 282 278 275 276 278 271 275 271 265 275 282 284 287 289 286 287 287 286 287 288 288 288 289 289 288 288 289 291 291 292 291 291 290 290 289 288 288 289 290 291 295 295 296 297 298 297 297 298 297 296 296 296 295 295 294 294 293 293 295 295 295 294 295 296 295 296 296 296 296 296 294
288 281 279 278 283 286 286 286 286 286 287 287 286 285 288 286 283 276 274 273 273 276 272 271 270 282 286 287 287 288 286 286 285 285 285 286 287 287 287 288 289 290 293 294 292 292 291 290 290 289 288 290 290 292 291 292 295 297 296 295 295 296 297 297 298 297 296 295 294 293 292 292 291 292 292 292 292 292 292 292 293 294 295 295 294 293
292 279 279 276 279 279 284 284 286 285 288 287 286 283 285 284 283 282 280 278 281 275 276 275 272 283 286 285 284 284 283 284 286 286 288 289 288 288 289 290 291 291 291 291 290 289 290 287 287 288 289 291 291 291 292 294 295 295 295 295 295 296 297 296 296 295 295 294 293 292 290 291 290 290 290 291 291 291 291 291 292 292 294 295 294 292
284 282 283 274 273 276 279 283 285 284 287 282 282 284 285 285 284 280 277 276 277 278 281 277 275 282 284 284 286 283 285 290 289 290 287 291 290 289 289 290 291 291 291 292 292 291 289 289 291 292 290 291 292 292 292 293 294 295 295 294 295 296 295 295 295 294 294 293 292 290 290 290 290 290 290 290 290 290 290 290 291 292 293 294 292 291
288 283 282 277 276 274 271 276 278 278 283 284 281 285 288 287 285 283 281 277 278 279 279 277 280 286 287 287 288 285 284 289 287 288 287 287 289 291 290 290 291 289 291 291 292 290 293 293 289 290 291 292 292 293 293 293 293 294 294 295 295 296 295 295 292 294 294 292 291 291 290 290 289 290 290 290 290 290 290 290 290 292 292 293 293 291
283 282 285 285 283 280 283 280 282 285 282 283 281 285 285 286 287 287 282 279 280 282 276 279 284 286 287 287 285 286 283 289 290 288 289 290 289 288 287 288 289 290 291 292 292 291 289 291 293 293 292 293 293 293 293 292 293 293 294 295 295 295 295 294 293 293 292 291 291 292 291 291 290 291 290 290 290 289 289 290 289 290 291 291 292 292
283 282 285 285 284 286 282 281 283 288 286 286 286 284 286 286 285 285 284 283 287 278 279 285 285 283 286 289 288 288 287 285 286 287 290 289 289 289 289 288 290 290 291 290 290 292 293 294 293 293 294 293 293 293 292 292 293 293 294 295 295 294 294 294 292 292 292 292 291 292 292 292 291 290 290 289 289 289 289 289 289 289 289 289 290 290
285 284 284 284 283 283 282 284 285 286 286 285 287 286 285 286 284 284 285 288 285 282 282 287 285 284 287 290 289 288 289 289 289 291 290 289 288 288 289 292 294 294 294 294 295 293 292 292 293 294 294 294 291 291 291 291 291 291 292 292 293 292 293 291 291 292 292 292 292 293 293 292 289 289 288 288 288 288 288 288 288 288 288 288 288 290
288 285 284 281 283 283 284 284 284 285 284 285 284 285 285 285 285 286 287 288 287 285 287 288 286 284 288 290 288 287 288 288 288 288 290 290 292 292 291 291 293 294 294 294 295 295 294 295 294 294 294 293 292 291 291 291 292 292 292 292 292 291 292 289 291 292 292 292 293 294 293 291 289 288 288 288 288 288 288 288 287 287 287 287 287 288
290 285 286 280 281 281 283 283 284 284 284 283 282 283 284 284 285 285 286 286 285 285 287 286 285 285 291 290 291 293 292 290 289 290 291 292 290 291 291 292 292 293 293 293 294 294 295 295 294 294 293 293 293 292 292 293 293 292 290 291 291 291 291 290 291 291 292 293 294 294 292 290 289 288 288 288 288 287 287 287 287 287 287 287 287 287
290 285 284 284 282 281 282 283 284 282 283 282 284 286 285 283 281 282 283 286 285 285 286 285 284 286 291 291 294 294 291 290 291 292 291 291 292 291 291 291 291 292 293 294 295 294 294 294 294 294 294 294 294 292 291 292 293 290 291 292 291 291 288 289 290 292 292 293 293 292 291 290 287 287 288 287 288 287 287 287 286 286 286 286 286 286
287 286 284 284 282 283 283 284 282 283 283 282 283 286 288 285 286 287 288 287 288 289 284 284 286 292 293 290 290 292 292 291 291 291 292 292 291 291 292 293 293 292 293 293 293 293 293 293 293 293 293 292 294 294 293 292 291 291 292 292 292 289 288 289 290 291 291 292 292 291 290 289 288 288 288 287 287 287 286 286 286 286 285 285 285 284
287 287 285 286 283 284 283 283 285 283 278 281 291 291 291 289 288 286 287 288 289 290 288 291 292 294 293 293 292 293 293 294 295 295 293 294 292 290 290 290 290 291 291 291 291 291 292 292 292 292 291 291 292 291 291 289 290 292 292 291 288 289 289 289 289 290 291 291 291 291 290 289 288 288 288 287 287 286 286 285 286 285 285 285 283 284
287 287 285 286 283 282 283 284 282 277 280 290 291 293 294 293 292 290 291 292 292 293 293 293 293 294 295 296 296 296 297 298 294 290 291 290 291 291 290 289 289 289 289 290 290 291 290 289 290 290 291 292 291 290 289 291 288 289 288 288 288 287 288 288 288 288 289 290 290 289 289 289 289 288 288 286 285 285 285 285 285 284 284 284 284 284
286 286 285 284 285 285 282 283 277 278 286 287 288 289 287 288 287 288 287 290 291 292 293 293 294 296 297 297 297 297 296 293 288 289 287 287 288 291 289 290 289 288 289 290 289 290 290 290 289 289 290 289 288 289 289 289 288 287 288 285 286 286 285 286 287 288 288 289 289 289 289 288 288 287 286 285 285 284 285 284 284 284 283 283 283 283
289 287 286 284 287 281 282 282 281 286 285 287 287 285 287 285 286 286 284 288 293 294 294 293 295 295 295 296 296 296 291 288 288 290 288 286 287 287 290 289 289 288 288 289 287 289 289 287 287 288 287 287 287 288 289 287 286 286 287 286 285 285 284 285 286 288 288 288 288 289 288 287 288 287 286 285 285 284 285 284 283 283 282 282 282 282
292 287 287 285 283 286 282 280 280 280 277 283 289 289 289 291 291 291 289 286 292 293 295 295 294 294 294 294 294 291 289 288 288 286 289 287 285 286 286 287 286 287 287 287 288 287 287 287 286 285 285 286 286 286 286 285 285 286 288 288 285 284 284 284 287 287 287 288 288 287 287 287 287 287 286 285 285 285 285 284 283 283 282 282 282 282
289 290 288 286 284 284 282 279 279 277 280 287 287 288 289 291 293 289 287 284 290 287 291 293 293 294 293 293 293 291 289 286 288 285 288 286 287 286 286 288 287 287 287 287 287 288 288 288 286 286 285 285 287 288 285 283 283 286 287 287 286 284 285 287 287 287 287 287 286 286 286 286 286 287 286 286 285 285 284 283 283 283 281 282 282 282
286 286 286 283 283 284 283 280 278 282 281 285 284 285 283 287 292 289 280 280 290 285 285 287 291 292 291 289 288 289 289 288 288 286 286 287 285 285 285 287 288 288 289 289 287 286 286 285 285 287 288 288 288 286 284 283 284 284 286 287 284 285 287 288 288 287 285 286 286 285 285 286 286 286 286 286 285 284 284 283 281 281 280 280 280 280
284 284 285 281 283 283 284 282 283 283 286 283 282 283 282 290 290 282 277 285 287 285 286 286 286 287 287 286 286 287 287 288 288 287 285 283 285 286 285 283 284 285 286 287 288 288 285 286 285 286 286 287 287 285 284 282 284 286 286 285 285 286 287 287 286 286 286 285 284 284 285 285 285 286 285 285 285 284 282 281 281 280 279 279 279 278
284 285 284 285 282 281 282 280 281 284 285 286 285 285 288 289 280 280 288 287 288 286 286 285 286 285 285 287 287 286 287 285 285 284 284 283 284 285 285 285 285 286 285 285 286 285 286 286 287 287 287 285 285 284 283 282 284 285 285 285 286 287 287 285 285 285 284 284 284 284 284 284 283 284 284 283 282 280 280 278 279 280 279 278 278 278
284 284 281 282 284 285 283 280 279 275 286 290 288 286 288 283 284 288 285 286 287 287 286 284 284 284 283 285 285 287 284 284 284 284 283 283 283 284 285 285 285 284 286 287 288 288 285 286 287 288 288 288 285 283 282 280 282 284 284 284 286 286 285 285 284 284 283 283 283 282 282 281 281 282 281 281 280 280 279 277 277 277 278 278 277 278
289 283 283 285 288 280 281 277 278 286 289 287 291 285 286 288 284 287 288 286 284 283 285 285 284 284 284 284 285 284 284 285 284 284 283 283 282 283 283 283 283 283 285 286 285 287 286 286 287 287 288 288 287 285 282 281 283 284 284 285 287 284 283 282 283 282 281 281 281 280 280 279 279 279 278 279 279 279 279 277 277 277 277 278 278 278
286 285 287 283 288 285 283 285 287 286 286 286 286 283 284 286 285 284 286 287 285 284 281 284 286 285 285 286 285 286 286 286 286 286 285 285 284 284 283 283 284 284 284 285 286 286 285 285 285 286 286 288 287 287 284 282 281 283 284 286 285 284 284 283 281 280 281 281 280 279 278 276 277 277 276 278 278 279 278 276 276 277 276 277 278 278
282 286 283 282 282 282 283 285 284 284 285 287 286 285 287 285 285 284 287 286 285 286 285 286 284 286 284 283 285 284 285 286 285 285 284 283 283 284 283 283 283 283 283 283 284 286 285 285 285 285 286 287 287 287 287 283 281 284 287 286 285 284 282 282 281 280 281 280 279 278 275 275 276 276 276 277 279 280 280 279 278 279 278 278 278 278
282 283 284 282 280 283 280 283 284 286 285 286 288 286 284 284 285 285 285 286 287 285 284 283 284 284 283 282 285 285 283 283 283 284 283 284 284 283 284 284 285 283 284 285 285 285 285 284 285 286 286 286 287 287 287 287 285 285 286 286 286 284 282 282 282 283 283 282 281 279 278 279 280 279 279 279 279 280 280 279 279 279 278 278 279 279
281 280 284 282 281 283 278 281 282 283 282 284 283 285 286 286 284 283 284 284 284 283 283 284 283 283 282 283 283 283 283 282 282 284 284 284 284 285 285 285 285 285 284 284 285 285 285 285 284 285 285 286 287 287 287 287 287 286 286 285 285 283 281 281 282 282 283 282 281 281 280 280 280 280 279 279 278 278 278 278 279 279 278 278 278 278
280 284 278 278 284 280 280 280 279 283 284 283 283 283 283 285 285 283 282 282 282 282 282 282 282 282 282 282 281 281 281 281 281 281 281 282 283 283 283 284 283 283 284 284 285 285 284 284 284 284 285 285 286 286 286 286 286 286 285 284 284 282 281 282 283 283 282 282 281 281 280 280 280 280 280 279 278 279 279 279 279 279 280 280 280 280
281 281 278 280 275 277 282 282 282 280 278 283 282 281 281 282 283 282 281 280 280 280 280 281 281 281 281 281 281 280 279 280 280 280 280 280 281 281 282 282 282 282 282 282 282 281 281 281 282 283 284 284 284 284 284 284 285 285 283 282 282 280 281 282 282 282 282 281 281 281 281 280 279 279 279 279 279 279 278 278 281 281 280 279 280 282
282 281 281 278 279 277 280 280 281 283 280 279 280 280 279 279 281 280 279 278 277 277 278 279 279 279 280 280 280 279 279 279 279 280 279 279 280 280 281 280 280 281 281 281 281 280 280 280 281 281 281 282 283 283 283 283 284 284 283 281 281 280 281 281 281 282 282 281 281 281 281 281 280 279 278 278 279 278 278 278 279 283 283 282 281 282
Wind_Speed
1 4 5 6 8 8 4 7 4 4 6 5 4 4 2 2 1 2 1 1 1 1 5 6 6 5 10 11 12 11 1 3 6 9 12 11 10 10 10 11 13 12 15 6 4 7 8 9 8 7 6 6 5 6 7 9 10 11 12 10 12 9 7 9 8 8 9 9 7 6 9 9 6 7 6 7 6 6 6 8 8 9 9 10 10 8
4 4 5 7 7 8 8 4 5 5 2 6 6 5 1 0 1 0 0 2 2 1 2 3 3 8 11 11 12 9 4 8 11 12 12 14 13 10 11 13 14 14 6 6 7 5 5 6 6 5 6 6 7 8 8 11 12 11 9 11 10 7 8 9 10 10 9 9 10 11 11 6 6 5 7 7 7 7 6 6 7 7 7 9 10 9
3 5 7 7 4 3 3 5 3 6 4 3 3 3 4 0 2 2 1 2 1 2 6 3 5 10 10 11 11 9 13 11 8 11 12 11 11 10 10 12 12 8 12 7 8 6 6 7 6 6 6 7 11 10 12 11 9 9 9 9 8 8 9 8 8 8 9 6 4 5 3 6 3 1 1 1 2 3 5 6 6 6 6 6 6 8
2 5 9 3 4 6 3 4 6 6 6 6 3 1 3 2 1 2 3 2 2 1 2 2 7 13 8 6 11 13 10 8 5 7 11 9 11 12 13 11 11 13 12 11 11 10 6 5 5 5 6 10 8 7 6 7 10 8 9 8 8 9 8 8 7 7 4 4 3 3 3 3 3 3 2 2 2 2 2 6 4 5 5 5 5 5
6 1 0 6 3 4 5 1 6 4 2 2 3 3 2 1 1 3 1 0 1 1 1 2 5 11 4 4 5 4 3 3 7 4 7 10 10 10 7 7 10 13 10 10 9 9 7 5 8 11 11 6 8 9 9 10 10 9 11 10 9 8 9 7 7 7 5 6 4 5 5 4 3 3 2 2 2 3 3 3 5 6 3 4 4 4
3 5 3 5 3 3 4 1 2 8 1 2 3 4 2 4 5 0 2 1 6 2 3 2 4 5 5 5 8 10 6 9 3 4 10 9 7 6 10 14 7 7 7 10 11 10 7 7 5 5 5 7 8 9 9 8 9 7 7 7 7 6 7 8 8 8 8 8 8 6 6 4 4 5 4 9 10 7 8 9 3 3 5 5 5 5
5 1 4 6 5 3 3 2 2 3 3 1 2 3 4 6 5 4 0 2 1 1 1 3 2 9 5 7 7 9 9 12 10 7 12 14 12 6 8 7 6 7 9 8 8 6 5 6 5 6 7 8 8 9 5 5 6 5 6 7 8 8 8 7 7 8 8 7 7 10 10 9 10 10 7 3 3 6 6 4 5 5 3 4 5 5
1 1 6 4 5 4 3 1 3 7 6 1 1 5 6 7 5 3 3 2 2 2 4 2 3 3 10 9 5 4 5 9 10 13 13 10 7 7 6 7 7 9 8 6 6 5 5 5 8 10 9 8 9 5 4 5 5 7 8 8 9 8 8 7 7 8 9 10 8 8 8 8 9 10 10 7 6 4 5 6 5 4 5 4 5 5
3 3 3 3 2 3 5 3 2 4 4 2 2 7 4 5 4 5 4 3 0 2 8 3 0 1 6 10 5 1 5 5 10 12 11 10 7 7 8 8 9 8 5 5 6 6 7 7 8 6 6 5 3 5 7 7 7 7 6 7 6 7 7 6 8 9 8 9 10 10 9 9 8 7 6 4 4 5 4 5 4 5 5 5 5 6
2 3 5 7 6 5 3 0 1 5 4 1 4 6 6 7 6 4 4 2 1 1 8 3 3 2 8 8 7 2 1 7 9 9 9 8 8 8 7 7 6 5 4 4 6 4 4 4 3 3 1 2 5 4 4 4 4 5 5 6 7 7 7 7 8 9 9 9 8 9 9 10 8 5 3 4 5 5 5 6 6 5 5 5 5 6
1 2 4 4 4 3 4 1 1 0 2 7 5 7 5 8 4 3 7 2 2 3 7 8 8 5 7 5 7 3 4 5 3 6 5 6 5 5 5 6 5 2 1 1 0 0 1 1 2 1 4 4 2 2 3 4 5 5 6 6 8 7 7 7 9 9 10 8 8 10 10 11 10 8 7 6 6 5 5 7 7 7 6 6 6 5
2 1 1 1 3 3 3 5 5 2 3 5 2 3 4 2 7 2 4 4 1 6 5 3 2 1 6 6 6 7 5 4 4 4 5 6 6 5 3 3 3 2 2 2 0 0 1 1 2 1 2 2 4 2 4 4 4 5 5 5 6 5 7 6 8 8 9 9 9 8 9 10 9 9 8 9 9 8 9 8 8 6 5 6 6 7
0 2 2 4 4 7 4 8 5 4 3 6 6 7 4 3 5 3 3 2 5 5 0 4 1 1 13 7 7 9 7 7 7 7 4 5 4 4 4 4 4 3 3 2 2 1 1 1 2 2 4 2 4 6 6 6 5 4 4 5 7 7 6 7 7 9 9 8 9 9 9 8 7 8 9 9 9 8 9 8 8 8 8 7 7 7
4 2 2 2 2 3 6 9 3 2 0 6 7 6 5 1 0 4 3 2 5 5 4 2 1 5 4 6 12 13 11 4 4 6 6 5 4 4 4 4 5 4 4 4 3 3 4 4 4 4 5 5 5 5 4 3 4 4 5 5 8 8 7 7 7 9 9 9 8 8 8 8 7 8 8 8 8 8 8 7 8 9 8 8 9 8
3 3 6 4 2 2 4 7 12 9 8 8 3 10 9 8 5 3 3 4 7 5 2 4 1 7 2 3 3 6 9 4 4 6 6 6 7 5 5 5 5 5 5 4 4 4 4 6 5 6 6 5 3 2 3 4 4 4 5 6 8 7 7 8 9 7 9 8 7 7 7 7 7 8 8 8 7 7 8 7 7 7 6 7 7 8
6 4 5 4 1 6 8 2 4 6 2 0 3 6 5 7 6 2 6 3 1 1 2 1 6 5 5 3 8 6 6 8 5 7 5 6 3 2 5 5 5 6 5 4 5 5 6 7 6 6 5 3 3 4 4 4 5 5 7 7 8 9 8 9 8 8 9 8 7 6 8 8 8 7 7 6 6 6 6 7 8 7 7 7 6 7
3 3 1 3 5 6 4 3 1 4 6 4 5 5 7 3 6 4 1 1 1 3 9 2 9 7 8 6 10 8 4 7 4 6 6 7 6 5 6 6 5 6 5 5 5 6 8 6 7 7 5 4 4 5 6 6 7 8 8 8 8 7 5 7 9 9 7 7 6 8 7 7 7 8 8 8 7 7 7 7 8 8 8 7 7 7
9 5 1 3 4 1 0 1 2 3 4 7 3 7 1 2 4 4 5 2 1 5 8 2 10 7 4 11 3 1 4 7 6 6 5 7 7 6 8 8 6 6 5 6 6 5 7 6 7 6 5 5 6 6 6 7 7 7 8 8 9 8 9 8 8 8 7 8 8 8 8 8 9 8 8 7 7 6 7 7 7 7 7 8 7 7
5 2 1 1 1 5 3 2 1 2 2 4 3 3 6 3 2 2 3 3 1 2 6 4 3 8 9 11 1 3 3 7 5 3 4 7 7 8 8 10 7 3 5 6 5 5 7 8 9 7 6 6 5 5 6 5 6 6 6 6 8 10 9 8 8 6 6 7 7 8 9 9 8 7 7 6 6 6 7 8 8 8 8 6 7 7
1 5 3 1 2 1 1 4 9 3 2 1 3 3 1 3 2 5 7 4 6 5 0 8 2 11 5 6 7 5 6 5 6 6 6 8 9 9 9 9 6 4 6 6 6 5 6 8 8 7 6 6 5 5 5 5 4 6 6 6 7 6 5 5 6 6 8 8 8 8 6 6 6 7 7 7 7 8 8 8 8 8 7 8 6 7
2 2 6 1 3 1 3 5 8 10 9 3 3 4 1 0 2 4 1 4 4 4 5 3 7 9 3 7 8 9 8 7 8 9 8 8 8 7 7 7 6 6 6 5 3 2 4 6 5 4 4 4 3 3 4 4 7 7 6 8 7 8 6 6 6 7 9 8 9 8 8 8 7 8 7 7 8 9 8 7 8 8 8 6 7 7
2 2 6 1 1 4 8 3 8 15 16 13 14 12 12 8 4 4 8 2 1 2 5 2 12 12 5 4 8 7 9 9 6 6 7 7 7 8 7 6 6 4 5 4 4 4 3 4 4 4 3 2 3 4 5 6 6 6 8 8 6 6 7 7 8 9 8 8 8 9 8 8 6 8 7 8 7 9 8 8 8 7 6 7 7 7
6 3 7 6 9 10 5 1 2 3 3 0 2 7 7 5 5 5 6 5 2 4 4 4 1 20 2 9 7 7 6 5 5 6 5 4 5 5 5 4 4 4 4 5 5 4 5 4 3 4 4 4 5 6 6 6 7 8 7 6 7 8 11 9 10 8 8 8 8 9 8 7 8 7 8 9 8 8 8 7 7 7 8 8 7 6
5 3 2 2 2 3 2 3 1 2 2 4 2 2 5 7 7 8 7 7 8 2 2 3 2 15 1 2 3 2 2 3 0 0 2 3 4 4 4 3 2 4 4 7 8 6 5 4 2 3 4 5 6 6 8 8 7 7 7 7 6 11 11 9 8 7 8 8 9 8 7 9 8 8 9 10 9 9 8 8 8 7 8 8 7 8
5 4 7 2 1 2 4 3 2 2 1 2 2 2 4 3 3 2 5 1 3 8 10 8 11 16 1 1 0 3 3 1 2 0 1 1 5 5 4 5 5 4 5 6 7 6 7 6 5 5 5 6 6 6 6 8 8 7 8 6 9 10 7 7 6 7 8 8 9 8 9 10 8 10 11 11 9 10 8 8 8 8 9 8 8 7
6 5 8 8 11 11 7 9 11 7 6 3 4 7 10 12 9 6 6 4 8 7 9 8 10 14 2 1 3 2 2 2 1 1 2 3 4 3 1 3 4 4 5 6 7 6 7 7 5 6 6 5 6 7 7 6 6 6 7 9 8 9 8 8 5 7 7 7 8 10 11 11 9 12 13 11 10 10 9 9 9 9 8 8 9 8
3 2 7 11 13 14 13 6 2 6 4 7 5 9 6 7 10 9 3 6 14 10 4 7 13 17 14 8 5 4 3 0 1 4 5 6 5 4 3 3 3 4 5 6 6 7 6 6 7 6 7 7 8 7 7 6 7 7 9 10 10 9 8 8 7 8 7 8 9 9 11 11 13 12 11 10 10 8 8 9 9 9 9 8 8 9
2 3 8 9 10 8 3 2 5 12 11 11 12 9 12 11 11 13 13 17 12 4 12 13 12 10 21 18 8 8 7 4 5 6 7 6 5 4 4 4 6 6 6 5 6 7 7 7 7 8 9 8 9 8 8 8 8 9 8 11 9 8 8 8 7 8 9 8 9 11 13 13 11 9 10 8 8 9 9 9 8 9 7 7 9 9
4 6 3 3 6 2 2 2 5 6 7 7 13 13 14 14 12 16 19 19 8 10 18 17 8 12 20 20 7 7 7 6 6 8 6 5 5 4 5 7 9 10 11 10 10 8 6 7 7 8 9 8 7 8 9 8 8 7 8 9 9 6 10 6 6 8 9 9 11 14 13 8 6 6 7 7 8 9 9 8 8 7 7 8 8 8
3 4 1 1 1 1 1 3 3 6 1 0 4 7 9 12 18 20 19 17 16 14 16 17 9 13 15 12 3 5 4 5 4 2 0 2 5 6 7 8 9 9 8 9 9 8 7 8 7 8 7 8 7 8 8 8 8 8 8 9 8 7 8 5 8 9 9 10 13 13 11 8 7 7 7 8 10 9 8 8 8 8 8 9 9 8
2 3 3 1 1 3 5 2 1 3 1 3 5 5 7 10 11 10 9 9 4 8 12 13 12 16 16 2 3 9 6 2 5 5 7 7 6 7 8 9 8 6 7 8 8 8 8 8 8 8 8 8 8 7 7 8 9 7 7 9 9 9 6 6 8 9 9 12 13 12 8 7 8 6 8 9 8 8 9 9 8 9 9 9 9 9
2 2 2 1 1 4 3 6 6 3 2 4 8 11 12 8 6 5 9 10 9 14 13 8 12 18 11 2 11 11 3 5 7 7 5 5 7 7 7 6 5 7 9 9 9 7 8 8 9 8 8 9 8 7 6 7 7 6 9 9 9 8 3 6 8 10 11 12 10 8 8 7 5 6 8 7 9 9 8 7 8 9 9 9 9 9
3 4 3 3 3 8 2 7 5 4 1 6 13 22 17 5 8 6 6 6 12 11 8 10 17 15 9 3 3 11 6 6 7 5 6 5 7 8 8 7 6 7 8 7 7 7 8 8 7 7 8 7 7 7 7 6 6 7 8 8 8 3 5 7 8 9 10 10 10 10 8 6 7 8 8 9 8 7 6 8 8 9 9 10 8 6
4 5 4 3 5 2 4 7 6 6 10 16 8 5 11 15 12 11 13 12 8 10 9 11 12 11 9 9 9 12 12 8 11 3 3 2 4 5 5 4 5 5 6 6 6 6 7 6 6 7 6 6 7 6 6 5 6 8 7 7 5 5 6 6 7 8 10 10 10 9 8 8 9 10 10 8 7 6 7 8 10 8 7 6 6 8
8 8 6 3 4 4 4 6 7 14 15 3 1 4 10 16 16 19 19 16 12 13 12 11 12 13 15 14 13 14 13 11 3 3 2 2 1 1 3 3 2 3 4 5 6 5 5 5 6 6 7 7 7 7 7 7 4 5 6 5 5 5 5 5 6 7 9 9 9 7 8 9 9 9 6 5 5 6 8 9 8 8 8 8 9 10
9 10 4 3 3 1 3 7 7 5 1 6 7 2 2 4 0 1 5 7 8 11 13 15 18 19 18 17 13 11 11 2 4 3 3 2 1 1 2 2 3 2 4 5 5 7 7 7 6 7 9 7 7 8 6 7 6 6 6 4 4 4 4 4 5 8 7 8 8 7 7 6 6 6 5 6 7 8 9 10 10 11 8 8 8 8
12 5 4 4 5 6 4 7 9 5 9 7 7 3 6 6 7 9 9 11 13 13 12 13 16 16 15 13 11 11 3 3 2 0 1 3 3 1 1 4 3 4 4 5 4 6 6 5 6 7 6 7 7 8 8 7 6 6 6 5 4 2 4 4 6 8 7 8 8 8 7 6 7 8 7 7 8 10 10 10 9 8 6 8 8 9
12 12 6 8 5 8 8 7 3 4 11 13 14 4 4 7 7 7 8 5 2 8 12 13 15 14 12 9 10 5 2 3 8 3 2 4 3 4 3 3 3 3 4 5 6 6 6 5 5 5 4 7 7 6 5 5 6 6 7 7 4 3 4 4 8 7 6 9 8 6 6 6 7 8 8 7 10 11 9 7 6 8 7 10 10 10
3 3 7 13 5 7 8 9 9 9 9 7 7 6 7 8 9 4 3 10 6 5 7 9 12 12 10 10 9 1 1 5 8 1 3 2 5 2 4 7 6 5 5 3 4 7 7 7 7 9 7 5 7 8 6 5 5 6 7 6 6 5 6 7 8 7 7 8 5 5 6 6 7 8 8 9 10 9 9 9 9 7 7 8 7 8
9 5 6 9 9 9 9 10 10 5 6 7 3 2 3 4 8 6 7 6 8 4 3 4 8 8 6 4 2 3 6 8 6 3 2 3 3 5 2 5 8 9 10 9 5 4 5 6 7 9 10 10 10 7 6 6 6 6 7 8 5 7 8 9 8 7 5 6 6 6 6 6 8 8 9 10 9 8 9 6 5 6 8 8 7 7
7 4 6 12 10 10 13 8 3 4 2 4 5 3 1 5 7 9 12 7 2 2 1 4 4 3 3 3 2 3 3 2 1 1 3 4 4 6 3 2 4 5 6 7 8 8 5 6 4 5 7 8 8 8 6 5 6 8 7 7 7 9 9 8 7 7 7 6 6 6 7 6 7 9 9 8 8 7 6 5 6 6 6 7 6 6
6 5 3 7 11 10 8 9 7 3 5 5 1 7 7 7 4 11 4 2 10 4 3 5 6 3 4 5 3 2 1 1 2 2 3 4 4 4 5 5 5 6 5 4 6 4 5 7 8 8 7 4 5 5 5 5 6 7 7 7 10 11 7 7 8 7 7 7 7 6 6 6 6 6 7 5 5 5 6 4 5 6 7 6 6 7
10 8 6 9 6 7 5 9 8 11 2 7 7 2 2 5 7 5 4 1 3 9 7 4 5 4 4 2 2 1 2 2 1 2 3 4 4 4 4 5 5 5 7 8 10 7 4 6 8 9 8 8 5 4 4 4 6 7 6 8 11 8 7 8 8 8 7 7 7 6 6 5 6 7 5 5 5 6 7 5 6 6 6 6 6 8
8 7 4 7 7 6 9 10 7 7 4 3 11 9 7 10 3 8 10 6 3 3 5 5 3 4 3 2 1 0 2 2 2 2 3 4 4 5 5 5 4 4 5 5 5 7 8 10 9 10 11 9 6 4 3 2 6 7 8 12 9 6 6 6 7 7 7 7 7 6 6 5 5 5 4 5 5 5 6 6 7 7 7 7 8 7
7 10 8 9 8 10 8 8 2 0 2 1 0 2 2 1 3 4 5 7 6 3 1 5 4 3 4 3 1 2 0 1 2 2 2 3 3 4 4 4 4 5 5 6 8 9 6 6 9 10 12 11 8 8 5 1 4 8 9 10 6 7 7 7 7 7 8 8 7 6 5 4 4 4 5 5 6 7 7 6 6 7 5 7 7 7
2 3 1 3 4 1 2 1 2 0 1 0 0 2 5 3 2 3 7 7 4 4 6 5 4 1 1 3 1 1 0 1 3 4 4 4 4 5 4 4 4 4 4 4 5 7 7 8 8 8 10 13 9 9 7 4 3 8 12 8 6 7 7 7 8 8 10 8 7 6 4 5 5 4 4 5 6 8 8 9 9 8 7 8 8 8
3 3 3 3 2 6 7 4 5 5 0 2 4 2 2 4 3 3 5 4 5 5 5 2 4 2 1 2 1 1 4 4 4 4 4 4 4 4 5 6 6 5 6 8 7 7 7 6 9 10 10 12 11 9 10 9 6 7 9 10 8 7 6 7 8 9 9 9 8 5 5 6 6 5 5 5 6 6 6 7 8 8 8 9 9 9
5 3 5 4 2 7 5 2 2 1 1 1 1 4 3 3 3 1 0 2 4 4 2 0 2 3 2 4 0 0 3 5 6 7 6 6 6 7 7 7 7 7 6 5 7 7 6 7 7 10 10 11 11 9 9 10 10 9 9 9 8 7 7 7 8 9 10 9 7 7 6 7 7 7 6 6 7 7 7 7 8 9 11 12 11 11
3 6 5 5 8 3 2 2 1 2 1 3 1 0 0 2 7 5 5 6 6 7 5 5 5 4 4 4 3 2 1 2 3 4 5 6 6 6 7 8 7 6 6 6 7 6 8 8 9 10 10 12 9 9 10 11 10 9 8 8 8 7 7 10 8 9 9 9 7 8 6 7 6 7 7 7 7 8 8 9 10 10 9 8 9 11
3 7 2 4 3 4 8 6 5 6 4 2 0 2 3 2 5 7 6 8 7 7 5 6 5 5 5 4 4 3 2 1 2 4 4 4 5 6 7 8 8 8 8 6 6 7 7 8 8 11 12 11 8 9 10 12 11 9 6 7 7 6 8 10 9 9 10 8 8 8 6 7 7 7 7 8 8 8 8 8 10 9 9 9 11 12
7 6 7 7 8 8 5 3 4 4 3 1 2 2 2 2 5 8 6 4 4 3 3 4 3 3 4 4 5 6 5 5 6 5 6 5 5 5 6 6 8 9 10 9 9 9 8 8 8 9 11 11 9 9 10 11 12 11 8 6 7 6 8 8 9 9 10 8 8 9 8 8 8 7 7 8 8 8 8 8 8 13 14 9 9 10
Wind_Direction
113 111 166 183 204 195 187 178 173 175 147 113 90 101 170 155 282 276 293 277 34 84 244 237 258 266 274 269 270 275 289 228 258 259 254 252 249 244 243 244 249 249 244 256 235 228 223 225 224 223 202 204 200 201 192 192 197 196 194 185 199 193 177 173 175 180 178 186 191 199 197 201 190 195 197 200 201 199 197 192 194 193 195 191 191 194
65 99 231 216 209 182 195 161 100 76 37 125 119 107 109 110 162 251 12 342 325 138 297 9 309 266 259 267 269 277 288 249 229 241 249 248 243 243 238 246 246 245 282 289 280 257 246 236 225 209 198 184 189 212 195 196 200 197 189 194 196 174 183 189 187 184 187 192 197 195 204 188 165 180 185 203 205 202 195 193 191 190 187 187 185 182
47 168 236 222 204 115 94 136 114 134 115 40 139 154 101 320 230 297 310 337 309 74 267 357 331 276 264 262 268 259 255 250 220 217 235 237 249 246 242 243 254 268 260 265 262 262 240 237 226 202 205 205 207 203 198 200 191 191 191 196 188 186 185 194 188 177 193 193 190 185 179 172 158 155 181 171 180 180 190 199 197 193 189 185 185 175
79 287 240 218 125 95 66 108 109 71 62 106 85 76 230 239 96 290 284 339 356 110 285 351 322 287 277 262 256 254 246 267 260 232 240 232 241 238 234 229 237 246 252 254 249 251 247 233 218 206 208 212 207 204 201 195 195 192 195 193 187 186 188 187 189 187 173 145 102 64 97 104 113 179 128 88 87 156 176 205 206 211 197 191 185 180
187 216 118 116 130 118 123 53 113 136 167 353 119 127 129 155 207 150 246 278 323 9 50 358 308 291 330 340 328 302 320 291 279 284 258 255 240 245 262 260 232 240 244 252 260 256 252 227 208 203 209 194 199 204 199 194 194 193 197 194 184 179 183 180 171 165 143 120 95 80 56 61 74 50 89 130 232 211 212 208 209 211 205 199 194 191
273 261 122 97 85 77 107 88 177 126 42 336 235 171 187 155 135 260 1 69 18 349 329 20 345 300 294 300 257 273 324 306 255 340 295 265 245 248 248 246 251 253 245 241 248 246 238 227 228 232 213 199 209 208 206 197 198 189 186 175 174 172 177 176 173 166 158 167 164 153 150 169 191 206 182 205 206 197 204 210 185 193 201 201 199 192
197 9 133 158 129 96 97 148 214 116 155 90 265 154 146 135 120 120 51 66 343 171 315 48 122 278 301 274 279 284 284 280 303 296 270 274 269 239 242 260 263 249 257 247 254 271 250 235 218 227 214 209 206 216 181 184 191 186 173 176 178 182 183 177 172 167 164 168 178 186 191 192 196 206 223 216 203 196 214 196 202 209 210 214 205 206
97 66 73 66 92 100 111 127 220 132 108 231 241 119 113 107 122 157 116 139 214 251 297 36 112 219 304 287 208 280 302 292 297 282 272 269 275 278 266 248 240 242 240 246 249 244 238 229 208 212 212 202 211 186 167 184 179 183 182 178 184 183 180 177 166 172 177 178 183 188 198 198 202 206 213 196 207 195 182 197 207 203 222 224 225 219
150 177 129 103 82 97 169 209 176 127 117 220 191 135 156 144 147 128 97 118 47 27 284 328 274 264 248 269 296 314 296 313 278 266 277 284 283 271 262 252 241 242 246 225 234 233 223 218 220 223 217 219 190 178 188 189 190 187 183 180 176 180 174 174 172 175 186 186 184 189 190 205 216 209 215 195 198 185 181 196 188 194 212 225 231 228
356 167 209 146 128 183 233 282 224 132 80 265 135 89 85 75 69 99 107 98 337 50 267 218 180 215 271 278 330 344 252 262 260 276 280 275 275 281 279 276 266 266 254 234 235 250 255 254 257 234 237 186 215 208 199 193 175 185 177 180 178 186 178 175 179 182 187 188 180 189 197 205 208 201 203 172 196 193 181 204 196 197 202 212 224 232
258 303 181 92 179 192 139 39 145 154 119 129 81 69 20 38 27 22 59 86 54 278 253 209 202 172 285 267 226 170 210 202 267 301 287 292 298 282 267 259 274 280 250 120 148 333 318 283 231 208 186 213 221 217 196 194 190 187 185 183 187 188 179 178 183 183 190 189 187 195 196 202 204 198 188 188 202 191 194 203 200 198 202 196 210 214
10 356 100 305 82 107 98 81 12 51 73 116 84 118 47 340 13 30 349 38 138 266 266 300 239 103 210 290 287 242 270 243 223 258 300 308 301 293 296 299 290 296 306 330 346 11 1 38 33 55 231 219 217 206 209 206 199 192 190 181 187 187 186 185 185 189 194 190 196 200 196 203 205 191 192 198 199 195 200 201 200 195 195 206 209 209
9 84 287 329 192 123 99 82 357 9 10 79 86 60 120 252 35 299 16 261 221 218 266 349 204 29 246 219 282 289 265 256 209 220 293 311 287 295 302 277 261 264 278 281 279 296 296 194 189 228 252 248 222 211 207 206 197 191 184 183 187 199 191 192 188 194 195 195 200 199 201 207 200 199 200 201 204 195 200 197 197 190 203 199 209 213
270 289 351 290 7 232 134 120 155 91 248 109 142 143 106 134 137 250 277 236 304 291 268 340 72 257 272 283 225 234 249 220 214 235 260 252 234 241 265 296 304 302 286 269 244 249 258 247 228 226 232 226 222 216 214 205 191 188 188 191 198 205 190 192 195 197 197 203 201 200 204 203 196 206 203 207 206 200 202 198 205 201 202 205 213 210
138 305 262 139 246 186 179 161 174 170 167 207 119 152 178 148 162 208 193 213 227 218 294 278 81 231 118 241 290 256 278 286 235 256 266 253 252 284 282 280 288 285 265 250 264 240 242 256 238 226 226 231 233 224 213 201 195 186 198 196 206 206 199 195 200 197 203 203 201 203 206 205 200 206 206 211 206 198 201 205 212 213 206 210 215 219
211 211 260 222 311 152 181 236 121 92 64 215 151 73 92 225 137 211 208 163 248 331 336 214 213 189 175 273 292 258 281 306 323 321 336 309 312 316 312 283 262 255 261 267 259 267 258 248 251 246 244 233 224 221 213 205 197 198 207 206 211 209 199 199 199 206 202 204 199 202 205 209 206 209 212 214 206 208 200 206 209 215 208 210 208 218
45 263 295 293 40 169 190 117 191 144 186 226 111 204 212 174 113 81 43 34 87 35 258 149 299 273 303 303 254 269 303 281 323 297 311 293 292 332 293 269 258 257 264 264 247 242 252 255 252 245 239 224 219 217 212 209 203 203 204 206 215 217 207 204 206 205 200 200 198 210 210 209 209 209 210 211 209 205 201 203 210 213 211 206 207 213
145 233 302 123 217 311 145 145 90 30 145 95 186 237 168 117 113 138 216 351 58 200 267 94 242 291 38 286 322 20 263 274 301 290 290 298 292 289 270 274 247 255 259 250 245 247 252 253 254 256 241 227 221 215 216 218 213 213 209 205 209 211 210 211 208 208 200 198 206 210 213 214 212 212 214 211 210 202 201 209 210 215 212 209 207 210
132 256 304 343 160 286 339 149 343 357 43 141 194 201 118 255 234 303 94 252 173 270 268 285 264 272 198 244 61 44 170 213 240 291 313 295 293 280 282 281 281 271 280 276 267 249 246 242 244 237 231 231 230 224 222 223 220 224 224 218 211 215 213 206 202 205 208 202 208 210 212 210 214 214 214 214 209 199 207 209 208 210 214 207 203 205
119 178 281 331 136 307 27 110 199 187 8 53 72 112 132 103 172 138 200 176 124 242 52 290 97 261 174 217 172 187 212 226 247 264 254 245 247 256 255 262 292 277 252 258 261 253 243 239 237 232 228 233 234 234 229 224 225 231 229 226 227 231 222 206 201 200 211 209 210 217 213 219 215 213 212 211 207 210 210 209 208 210 208 209 197 202
178 147 232 296 294 86 187 200 206 155 158 170 160 199 181 2 230 111 51 137 175 180 186 257 304 258 256 198 161 199 217 229 227 246 262 270 268 259 260 273 282 282 291 283 258 219 248 263 263 276 286 280 279 258 240 228 227 227 223 229 224 222 223 217 206 201 216 206 216 211 213 212 209 214 212 215 212 217 215 208 206 209 208 194 204 194
117 146 185 146 64 237 241 238 175 181 185 180 180 198 184 134 149 149 257 27 105 145 236 129 262 277 239 193 180 190 216 210 231 218 256 271 267 263 270 259 248 278 279 276 280 272 251 267 299 297 290 274 265 258 238 231 230 233 229 227 220 224 227 216 215 210 212 211 211 211 213 213 211 211 212 215 213 218 216 210 206 203 198 208 207 192
163 147 112 186 200 203 216 239 279 267 348 75 162 230 178 180 126 145 198 253 8 245 126 181 53 271 182 184 193 202 205 202 215 174 224 260 265 267 269 264 274 235 253 267 281 306 316 302 281 275 268 257 243 243 234 232 226 231 233 225 222 218 228 212 218 209 204 208 210 215 211 209 213 208 214 215 217 218 214 213 210 199 205 206 205 203
93 102 118 292 317 314 318 316 16 54 206 300 304 111 132 189 185 182 176 186 173 200 219 255 220 265 103 315 209 186 234 236 74 216 287 300 280 303 330 320 307 323 310 326 338 320 294 294 303 306 282 266 258 247 241 237 235 234 232 224 220 229 231 221 220 209 206 211 216 211 207 214 211 210 214 218 216 217 212 211 209 200 210 207 199 204
157 258 151 145 27 337 348 342 350 329 97 188 188 209 190 178 140 143 98 86 188 208 196 154 233 258 320 323 347 37 31 31 14 255 191 339 314 314 335 335 336 338 320 306 295 290 309 317 301 274 250 248 253 252 246 242 237 234 237 224 226 235 231 231 227 216 216 209 214 211 214 218 208 214 217 218 212 216 208 210 208 203 208 203 206 204
179 181 150 180 200 204 212 198 210 214 197 220 206 203 201 180 175 124 212 183 212 238 192 200 241 253 207 331 71 356 27 347 279 253 297 214 221 248 284 300 317 330 291 278 283 301 288 270 276 286 285 282 266 255 255 248 244 245 245 239 230 235 228 224 211 227 225 218 214 219 218 219 210 218 218 215 214 212 207 208 207 206 208 201 207 202
180 203 194 192 199 215 221 208 249 122 108 181 235 188 201 203 187 186 119 177 215 222 195 237 232 256 253 233 263 293 345 26 323 324 316 317 316 319 293 277 260 260 269 275 270 263 282 307 301 289 284 271 274 270 266 255 245 236 236 242 233 228 225 217 202 210 218 223 224 228 226 219 217 216 215 213 212 206 207 209 208 205 208 199 207 204
83 201 225 217 226 240 179 176 202 163 181 206 204 205 200 189 183 183 189 219 210 201 250 233 229 242 259 254 234 263 266 269 265 265 288 292 285 280 288 275 276 276 272 270 289 306 303 293 294 290 281 281 273 277 269 258 247 241 236 243 241 229 226 219 202 207 213 217 227 233 236 227 222 214 214 210 207 207 208 206 205 208 206 198 208 210
156 201 278 152 250 112 161 143 152 187 197 200 207 200 196 198 186 195 215 223 182 191 230 241 195 223 253 257 237 230 241 228 231 237 230 237 274 298 303 313 310 304 305 311 300 291 281 274 270 275 281 281 284 278 274 273 264 253 253 251 253 233 230 211 195 212 216 216 226 233 235 236 231 223 212 205 206 209 209 205 202 200 201 205 210 208
118 242 179 112 196 115 215 138 109 148 167 188 212 217 213 199 203 205 216 220 212 219 233 249 238 233 247 269 117 228 219 197 224 201 353 299 273 276 282 278 274 274 279 281 283 283 276 272 275 277 289 294 286 278 278 276 269 261 255 259 254 241 239 182 213 217 220 223 230 235 233 225 220 216 211 206 210 210 205 200 197 194 202 209 208 206
138 264 96 70 70 251 218 224 136 136 135 254 257 232 212 209 221 230 241 251 272 279 268 266 272 269 255 230 271 240 227 204 262 265 243 240 249 247 245 250 261 280 283 277 274 277 279 288 300 307 303 294 290 278 272 267 269 270 264 256 257 247 228 187 219 225 224 231 234 238 236 225 223 206 212 215 208 207 203 201 193 197 205 209 206 206
104 238 59 64 233 269 184 173 206 159 174 212 258 253 232 197 195 200 211 217 200 222 233 253 265 256 264 130 256 277 125 210 231 234 240 252 244 251 255 259 254 257 265 269 274 288 303 305 299 299 297 297 298 293 279 276 273 270 263 264 257 257 197 200 219 225 230 235 244 244 236 232 222 213 223 213 216 208 203 195 196 203 206 204 208 209
175 142 145 142 199 245 188 176 159 129 94 305 247 233 229 207 200 219 242 220 215 208 221 229 241 248 266 197 271 281 261 247 268 242 237 252 251 243 251 252 246 245 250 272 292 294 288 288 291 292 295 297 299 303 293 284 287 274 266 266 263 237 203 220 222 231 238 239 236 237 229 218 213 220 220 220 219 208 195 199 205 209 206 210 207 191
146 156 191 167 219 206 178 146 138 149 211 228 258 137 171 216 205 219 233 220 213 179 214 225 247 272 275 260 242 262 269 255 254 276 137 192 246 261 260 253 256 267 282 283 277 277 283 293 294 291 282 281 285 279 280 282 267 273 274 270 267 225 231 220 234 229 242 243 239 233 224 217 216 220 219 213 206 199 202 202 212 211 207 204 195 203
175 176 191 180 181 202 165 148 164 214 229 240 316 184 175 188 197 217 231 232 214 210 227 243 248 249 253 254 256 259 263 270 353 75 237 258 348 4 285 297 298 285 286 293 307 307 300 295 304 308 318 319 317 311 323 317 305 298 298 288 273 249 239 234 239 241 243 247 249 242 233 227 226 230 225 209 200 200 207 208 213 206 202 197 200 202
180 179 148 208 157 130 163 180 220 219 216 316 282 209 50 60 190 172 292 272 239 223 213 227 236 245 249 254 258 259 264 310 81 37 24 353 110 129 44 335 313 312 319 308 302 303 311 316 310 303 300 306 316 314 316 307 321 324 300 297 264 276 256 251 247 252 252 254 253 246 241 235 239 237 220 207 204 207 212 211 207 206 199 198 206 212
168 151 160 212 183 215 183 213 237 349 319 283 279 228 154 160 164 170 219 238 228 219 215 224 236 242 249 253 259 266 306 29 18 50 276 349 339 310 289 307 303 311 304 301 287 282 286 285 291 294 294 300 307 313 318 320 324 318 313 317 296 277 265 247 250 251 251 253 251 245 238 227 229 229 220 210 210 216 217 213 211 211 188 199 204 203
162 183 185 204 216 191 218 243 248 223 239 249 240 246 198 186 168 177 187 264 214 214 209 215 229 237 244 254 259 273 48 356 296 239 240 322 307 311 295 275 293 296 305 305 316 311 311 306 296 285 277 294 303 296 303 318 321 323 320 315 318 297 271 249 255 254 252 252 252 250 239 230 225 229 223 214 219 221 222 216 214 207 188 200 201 208
280 179 175 199 199 188 208 223 226 224 234 234 258 216 207 184 154 120 176 244 238 198 210 208 225 232 232 238 258 97 196 247 253 250 239 285 324 350 333 321 326 318 308 301 298 307 312 313 315 307 313 309 321 323 328 322 325 328 313 308 310 306 288 274 268 265 257 260 257 246 235 227 225 226 224 223 225 219 218 210 209 202 192 209 204 212
199 195 170 215 214 207 210 219 225 209 244 243 216 241 235 144 119 106 224 245 228 170 226 184 215 228 232 218 171 151 182 237 247 238 269 327 307 291 280 310 325 332 326 329 320 284 282 298 327 330 333 333 321 318 319 322 325 316 304 301 307 301 286 277 274 271 263 261 255 243 232 221 223 226 222 227 226 218 220 209 199 195 193 206 201 200
193 203 206 207 209 221 218 237 243 272 281 219 193 217 171 151 132 178 216 229 165 126 115 133 135 150 134 101 136 168 227 175 171 235 308 324 348 324 311 261 265 280 295 309 310 319 327 317 301 288 292 299 305 315 320 325 326 312 306 305 310 290 281 283 287 280 271 263 257 247 239 231 223 230 229 224 224 215 214 198 200 191 195 200 198 193
191 194 204 208 222 217 223 230 242 283 228 195 221 156 163 113 198 217 225 148 140 160 175 152 137 163 147 118 118 153 189 257 321 326 314 292 254 265 286 297 309 311 286 263 269 293 320 325 321 318 311 291 291 304 311 319 313 300 307 312 296 284 293 293 282 279 274 265 256 252 246 239 240 233 234 226 210 207 212 203 190 194 193 190 188 196
179 191 182 201 204 227 222 239 236 241 227 192 124 59 223 196 227 168 134 39 146 154 149 177 146 184 141 148 188 193 269 307 280 253 247 262 260 266 284 301 308 307 315 329 335 333 344 324 325 318 311 316 324 309 300 313 301 298 297 292 283 292 298 290 287 278 273 269 266 258 249 244 235 233 222 219 205 201 206 185 184 190 182 184 191 198
170 200 179 214 180 211 203 222 213 220 223 191 164 205 198 205 195 153 140 140 226 162 157 149 191 172 162 123 171 252 223 243 293 229 258 260 247 266 279 282 289 304 317 314 303 313 339 333 325 324 319 320 321 322 310 296 305 304 305 293 297 301 291 289 282 280 276 271 265 266 260 248 241 232 216 207 195 201 197 191 189 184 186 185 187 194
197 201 179 202 184 194 206 220 237 295 164 235 134 226 189 154 127 143 111 132 151 239 213 127 168 195 165 152 182 167 251 264 260 237 199 217 233 255 274 291 300 308 311 313 314 317 325 317 312 314 313 312 322 320 328 279 279 296 293 292 314 305 307 299 293 281 270 265 262 258 260 255 243 228 214 202 186 191 196 196 185 190 195 184 194 195
279 206 74 96 265 281 299 196 182 8 291 114 53 166 137 86 45 92 124 133 202 186 168 170 189 193 210 168 125 323 174 289 318 319 324 327 328 315 313 314 321 314 303 303 311 320 318 317 314 312 309 311 318 321 316 311 268 295 291 299 302 298 299 295 289 276 265 263 257 253 240 237 244 231 223 213 206 204 195 188 189 193 189 190 198 196
245 174 172 192 267 179 248 190 169 183 221 156 119 51 46 133 165 149 140 167 165 169 184 255 154 188 201 133 134 315 318 328 334 319 329 335 337 329 327 322 322 332 329 325 316 319 321 321 315 311 309 306 311 317 313 315 300 270 287 298 300 299 287 280 270 271 271 265 262 249 221 222 226 220 221 219 221 217 204 196 192 191 192 194 198 202
270 172 176 213 199 191 233 260 224 346 356 314 160 144 148 169 111 74 28 91 109 93 88 81 105 52 74 39 1 104 306 324 346 332 338 337 333 331 328 326 324 326 323 309 308 314 309 306 299 299 302 300 304 310 306 307 304 304 301 298 300 297 290 276 265 265 268 264 256 250 233 230 221 214 218 214 210 214 216 213 200 199 200 195 195 192
204 124 217 192 206 245 336 324 304 21 17 13 24 167 259 134 120 88 82 78 75 73 56 49 51 79 68 42 51 79 66 318 325 321 320 314 320 319 316 314 313 309 314 324 316 319 310 307 304 296 297 295 302 306 304 300 299 300 299 294 296 289 283 276 270 263 265 264 256 252 240 236 232 217 213 217 218 223 214 202 203 212 221 219 200 196
99 199 192 120 181 215 197 205 153 133 228 181 196 25 7 355 105 95 74 58 52 61 47 71 48 39 53 42 41 46 55 314 307 317 307 291 289 299 308 313 316 319 319 315 309 303 298 293 292 298 299 297 303 304 302 301 299 299 293 288 283 273 268 273 276 273 266 255 248 251 244 242 238 231 224 216 217 223 239 244 230 222 209 215 209 213
178 200 159 175 185 219 237 215 185 137 81 251 155 76 13 6 90 84 78 80 59 44 46 82 78 47 40 26 27 31 11 354 339 337 322 317 312 302 302 310 316 318 318 321 320 316 310 303 300 297 297 301 309 303 298 296 296 302 303 286 276 264 261 265 270 270 269 259 250 241 234 238 238 231 228 228 223 215 222 234 238 232 231 227 216 208